Regional Weather Roundup
Issued by NWS

Home | Current Version | Previous Version | Graphics & Text | Print | Product List | Glossary On
Versions: 1 2 3 4 5 6 7 8 9 10 11 12 13 14 15 16 17 18 19 20 21 22 23 24 25 26 27 28 29 30 31 32 33 34 35 36 37 38 39 40 41 42 43 44 45 46 47 48 49
000
ASUS45 KBOU 231107
RWRCO

WEATHER ROUNDUP FOR COLORADO
NATIONAL WEATHER SERVICE DENVER/BOULDER CO
500 AM MDT TUE SEP 23 2014

NOTE: "FAIR" INDICATES FEW OR NO CLOUDS BELOW 12000 FEET WITH NO
SIGNIFICANT WEATHER AND/OR OBSTRUCTIONS TO VISIBILITY.

COZ001>005-013-030-031-231200-
...NORTHWEST COLORADO...

CITY           SKY/WX    TMP DP  RH WIND       PRES   REMARKS
CRAIG          CLOUDY    51  49  92 SE3       30.24S
HAYDEN         CLOUDY    54  46  76 E3        30.25S
MEEKER         MOCLDY    50  47  89 CALM      30.26S
MOUNT WERNER   NOT AVBL
STEAMBOAT SPGS CLOUDY    49  48  97 CALM      30.26S
WALDEN         CLOUDY    50  45  81 CALM      30.30S
$$

COZ006>008-011-231200-
...WEST CENTRAL VALLEYS...

CITY           SKY/WX    TMP DP  RH WIND       PRES   REMARKS
GRAND JUNCTION CLOUDY    59  52  77 CALM      30.17R
MONTROSE       PTCLDY    54  48  80 SE6       30.25R
EAGLE          CLOUDY    52  50  93 CALM      30.30S
RIFLE          CLOUDY    55  51  86 CALM      30.22S
DELTA          RAIN      60  57  88 SE6       30.21R
NUCLA          PTCLDY    52  43  71 E5        30.29R
$$

COZ017>023-064>068-231200-
...SOUTHWEST COLORADO...

CITY           SKY/WX    TMP DP  RH WIND       PRES   REMARKS
DURANGO        PTCLDY    48  42  80 N5        30.31R
CORTEZ         CLEAR     45  42  89 CALM      30.26S
PAGOSA SPRINGS MOCLDY    49  46  89 CALM      30.38S
TELLURIDE      NOT AVBL
WOLF CREEK PAS NOT AVBL
$$

COZ009-010-012-014-032>034-037-058>063-231200-
...CENTRAL COLORADO...

CITY           SKY/WX    TMP DP  RH WIND       PRES   REMARKS
ASPEN          CLOUDY    48  44  86 SW3       30.33S
BUENA VISTA    PTCLDY    44  41  89 CALM      30.32S
COPPER MTN     PTCLDY    41  32  70 W10       30.54R
BERTHOUD PASS  FOG       34  32  93 NW28G41   30.51F VSB 1/4 WCI  20
COTTONWOOD PAS PTCLDY    52  37  58 NW5G16    30.41F
GUNNISON       PTCLDY    45  39  81 CALM      30.37S
KREMMLING      CLOUDY    50  45  81 N6        30.32R
LEADVILLE      MOCLDY    48  37  65 N7        30.42F
MONARCH PASS   LGT RAIN  37  37 100 W31G37    30.62F VSB<1/4
SALIDA         PTCLDY    52  44  73 NW5       30.36F
SUNLIGHT       CLOUDY    45  43  93 CALM      30.50S
WILKERSON PASS NOT AVBL
$$

COZ069>075-231200-
...SAN LUIS VALLEY/SANGRE DE CRISTO MOUNTAINS...

CITY           SKY/WX    TMP DP  RH WIND       PRES   REMARKS
ALAMOSA        PTCLDY    39  36  89 CALM      30.33S
LA VETA PASS   PTCLDY    45  43  93 SW6       30.46R
SAGUACHE       PTCLDY    45  41  87 N10       30.35S
$$

COZ035-036-038>040-231200-
...NORTHERN COLORADO FRONT RANGE...

CITY           SKY/WX    TMP DP  RH WIND       PRES   REMARKS
DENVER INTL AP MOCLDY    59  50  72 SW9       30.13S
DMNS CITY PARK   N/A     58  51  77 S6        30.13S
AURORA         MOCLDY    56  50  81 SW7       30.15F
FRONT RANGE AP CLOUDY    61  52  72 SW8       30.14S
ERIE MUNI ARPT NOT AVBL
BOULDER MUN AP CLOUDY    57  52  82 S5        30.12S
CENTENNIAL     MOCLDY    58  49  72 S5        30.16S
BROOMFIELD     MOCLDY    59  50  72 NE6       30.15S
FORT COLLINS   MOCLDY    59  48  67 CALM      30.12F
LONGMONT       CLOUDY    58  49  71 CALM      30.13S
$$

COZ041-046-047-076>085-087-088-231200-
...PIKES PEAK/PALMER DIVIDE AND SOUTHERN FOOTHILLS...

CITY           SKY/WX    TMP DP  RH WIND       PRES   REMARKS
COLO. SPRINGS  CLEAR     52  42  69 N8        30.20S
A. F. ACADEMY  CLEAR     46  42  85 N8        30.22R
ELLICOTT       NOT AVBL
FALCON         CLEAR     48  41  77 W6        30.24S
FORT CARSON    CLEAR     52  44  73 NW10      30.17S
LIMON          CLEAR     48  46  93 W6        30.14S
MONUMENT HILL  PTCLDY    46  41  81 S8        30.22F
TRINIDAD       CLEAR     61  53  75 W16       30.17R
$$

COZ042>045-048>051-090-091-231200-
...NORTHEAST COLORADO...

CITY           SKY/WX    TMP DP  RH WIND       PRES   REMARKS
GREELEY ARPT   CLOUDY    57  45  62 NE5       30.11S
AKRON          MOCLDY    55  53  93 SW7       30.08F
BURLINGTON     PTCLDY    56  54  93 CALM      30.07S
WRAY           PTCLDY    59  59 100 SW7       30.05S
STERLING       MOCLDY    57  55  94 SW3       30.04S
HOLYOKE        PTCLDY    61  57  88 SW10G16   30.03F
FORT MORGAN    MOCLDY    56  53  91 CALM      30.09S
$$

COZ086-089-092>099-231200-
...SOUTHEAST COLORADO...

CITY           SKY/WX    TMP DP  RH WIND       PRES   REMARKS
PUEBLO         CLEAR     54  48  80 CALM      30.11F
LA JUNTA       PTCLDY    58  56  93 W7        30.07R
LAMAR          CLEAR     55  53  93 SW6       30.02S
SPRINGFIELD      N/A     61  58  90 SW10      30.09R
$$



USA.gov is the U.S. government's official web portal to all federal, state and local government web resources and services.